Tracking 35237 objects as of 5-Sep-2026
HD Live streaming from Space Station
objects crossing your sky now

GNOMES-1

Track GNOMES-1 now!
10-day predictions


NORAD ID: 46266
Int'l Code: 2020-059B
Launch date: August 30, 2020
Source: United States (US)
Launch site: AIR FORCE EASTERN TEST RANGE (AFETR)
Your satellite tracking list
Your tracking list is empty




NASA's NSSDC Master Catalog

Two Line Element Set (TLE):
1 46266U 20059B   26248.14932883  .00001495  00000-0  12267-3 0  9990
2 46266  97.7983  98.7150 0012593 113.8790 246.3754 15.00729698327581
Source of the keplerian elements: AFSPC